Location: Karlsruhe
(49.0069°N, 8.4037°E)
Time: 03:27:54
(UTC+01:00)

ISS - Visible Passes

Search period start: 16 February 2019 00:00
Search period end: 26 February 2019 00:00
Orbit: 403 x 411 km, 51.6° (Epoch: 16 February)

Date Brightness Start Highest point End Pass type
(mag) Time Alt. Az. Time Alt. Az. Time Alt. Az.
23 Feb -1.0 06:33:40 10° S 06:35:54 17° SE 06:38:09 10° E visible
24 Feb -0.6 05:43:55 10° SSE 05:44:38 11° SE 05:45:20 10° ESE visible
25 Feb -2.2 06:26:07 10° SSW 06:29:06 33° SSE 06:32:06 10° E visible
